• In Belarus
  • List of Countries
  • For 7 days
  • Water Temperature
  • Satellite Maps
  • Weather Map
  • Weather Widgets
  • user-avatar
    Login

    Hourly Weather Algiers

    Today, 20 October, Friday

    Time Temperature Precipitation Wind Pressure Humidity
    00:00 +16°C° 0 mm 7 mps 747 mmHg 77%
    01:00 +16°C° 0.7 mm 6 mps 747 mmHg 75%
    02:00 +16°C° 0.7 mm 6 mps 747 mmHg 74%
    03:00 +16°C° 0.7 mm 5 mps 747 mmHg 72%
    04:00 +16°C° 0.4 mm 5 mps 748 mmHg 72%
    05:00 +15°C° 0.4 mm 4 mps 748 mmHg 72%
    06:00 +15°C° 0.4 mm 4 mps 748 mmHg 72%
    07:00 +18°C° 0 mm 3 mps 749 mmHg 67%
    08:00 +19°C° 0 mm 3 mps 749 mmHg 62%
    09:00 +20°C° 0 mm 3 mps 750 mmHg 57%
    10:00 +21°C° 0 mm 3 mps 750 mmHg 53%
    11:00 +22°C° 0 mm 3 mps 750 mmHg 50%
    12:00 +24°C° 0 mm 3 mps 750 mmHg 47%
    13:00 +24°C° 0 mm 3 mps 750 mmHg 48%
    14:00 +23°C° 0 mm 4 mps 750 mmHg 48%
    15:00 +23°C° 0 mm 4 mps 750 mmHg 49%
    16:00 +22°C° 0 mm 3 mps 751 mmHg 54%
    17:00 +21°C° 0 mm 3 mps 751 mmHg 59%
    18:00 +20°C° 0 mm 2 mps 752 mmHg 64%
    19:00 +19°C° 0 mm 2 mps 752 mmHg 66%
    20:00 +19°C° 0 mm 2 mps 753 mmHg 68%
    21:00 +19°C° 0 mm 2 mps 753 mmHg 71%
    22:00 +18°C° 0 mm 2 mps 753 mmHg 71%
    23:00 +18°C° 0 mm 2 mps 753 mmHg 72%

    Tomorrow, 21 October, Saturday

    Time Temperature Precipitation Wind Pressure Humidity
    00:00 +18°C° 0 mm 3 mps 753 mmHg 73%
    01:00 +18°C° 0 mm 3 mps 753 mmHg 73%
    02:00 +17°C° 0 mm 3 mps 753 mmHg 74%
    03:00 +17°C° 0 mm 3 mps 753 mmHg 75%
    04:00 +17°C° 0 mm 3 mps 753 mmHg 74%
    05:00 +17°C° 0 mm 3 mps 753 mmHg 74%
    06:00 +17°C° 0 mm 3 mps 754 mmHg 74%
    07:00 +19°C° 0 mm 2 mps 754 mmHg 71%
    08:00 +20°C° 0 mm 2 mps 754 mmHg 68%
    09:00 +21°C° 0 mm 2 mps 755 mmHg 65%
    10:00 +23°C° 0 mm 2 mps 754 mmHg 61%
    11:00 +24°C° 0 mm 2 mps 754 mmHg 57%
    12:00 +25°C° 0 mm 2 mps 754 mmHg 52%
    13:00 +25°C° 0 mm 2 mps 754 mmHg 52%
    14:00 +26°C° 0 mm 2 mps 753 mmHg 52%
    15:00 +26°C° 0 mm 2 mps 753 mmHg 52%
    16:00 +25°C° 0 mm 2 mps 753 mmHg 58%
    17:00 +24°C° 0 mm 1 mps 753 mmHg 64%
    18:00 +22°C° 0 mm 1 mps 753 mmHg 70%
    19:00 +22°C° 0 mm 1 mps 754 mmHg 73%
    20:00 +22°C° 0 mm 1 mps 754 mmHg 76%
    21:00 +21°C° 0 mm 1 mps 754 mmHg 79%
    22:00 +21°C° 0 mm 1 mps 754 mmHg 79%
    23:00 +21°C° 0 mm 1 mps 754 mmHg 79%

    Day after tomorrow, 22 October, Sunday

    Time Temperature Precipitation Wind Pressure Humidity
    00:00 +20°C° 0 mm 2 mps 754 mmHg 79%
    01:00 +20°C° 0 mm 1 mps 754 mmHg 78%
    02:00 +20°C° 0 mm 1 mps 754 mmHg 77%
    03:00 +20°C° 0 mm 1 mps 753 mmHg 75%
    04:00 +20°C° 0 mm 1 mps 753 mmHg 74%
    05:00 +20°C° 0 mm 1 mps 753 mmHg 73%
    06:00 +20°C° 0 mm 1 mps 754 mmHg 72%
    07:00 +21°C° 0 mm 1 mps 754 mmHg 63%
    08:00 +23°C° 0 mm 1 mps 754 mmHg 55%
    09:00 +23°C° 0 mm 0 mps 755 mmHg 46%
    10:00 +26°C° 0 mm 1 mps 754 mmHg 44%
    11:00 +26°C° 0 mm 1 mps 754 mmHg 42%
    12:00 +27°C° 0 mm 1 mps 754 mmHg 40%
    13:00 +27°C° 0 mm 2 mps 753 mmHg 41%
    14:00 +27°C° 0 mm 2 mps 753 mmHg 42%
    15:00 +27°C° 0 mm 3 mps 753 mmHg 43%
    16:00 +25°C° 0 mm 2 mps 753 mmHg 50%
    17:00 +24°C° 0 mm 2 mps 753 mmHg 57%
    18:00 +23°C° 0 mm 2 mps 754 mmHg 64%
    19:00 +21°C° 0 mm 2 mps 754 mmHg 66%
    20:00 +21°C° 0 mm 2 mps 754 mmHg 69%
    21:00 +20°C° 0 mm 2 mps 755 mmHg 71%
    22:00 +21°C° 0 mm 1 mps 755 mmHg 72%
    23:00 +21°C° 0 mm 1 mps 754 mmHg 73%

    23 October, Monday

    Time Temperature Precipitation Wind Pressure Humidity
    00:00 +20°C° 0 mm 1 mps 754 mmHg 74%
    01:00 +20°C° 0.1 mm 1 mps 754 mmHg 74%
    02:00 +20°C° 0.1 mm 1 mps 754 mmHg 75%
    03:00 +19°C° 0.1 mm 1 mps 754 mmHg 75%
    04:00 +19°C° 0.1 mm 1 mps 754 mmHg 76%
    05:00 +18°C° 0.1 mm 2 mps 754 mmHg 78%
    06:00 +18°C° 0.1 mm 2 mps 754 mmHg 79%
    07:00 +19°C° 0.2 mm 2 mps 754 mmHg 75%
    08:00 +20°C° 0.2 mm 3 mps 755 mmHg 71%
    09:00 +22°C° 0.2 mm 3 mps 755 mmHg 66%
    10:00 +22°C° 0 mm 4 mps 755 mmHg 64%
    11:00 +23°C° 0 mm 4 mps 755 mmHg 61%
    12:00 +25°C° 0 mm 4 mps 755 mmHg 58%
    13:00 +25°C° 0 mm 4 mps 754 mmHg 58%
    14:00 +23°C° 0 mm 4 mps 754 mmHg 58%
    15:00 +23°C° 0 mm 4 mps 754 mmHg 57%
    16:00 +22°C° 0 mm 4 mps 754 mmHg 62%
    17:00 +21°C° 0 mm 4 mps 754 mmHg 67%
    18:00 +20°C° 0 mm 4 mps 754 mmHg 72%
    19:00 +19°C° 0 mm 3 mps 755 mmHg 74%
    20:00 +19°C° 0 mm 3 mps 755 mmHg 76%
    21:00 +18°C° 0 mm 2 mps 755 mmHg 78%
    22:00 +18°C° 0 mm 2 mps 755 mmHg 78%
    23:00 +18°C° 0 mm 2 mps 755 mmHg 78%

    24 October, Tuesday

    Time Temperature Precipitation Wind Pressure Humidity
    00:00 +17°C° 0 mm 2 mps 755 mmHg 77%
    01:00 +17°C° 0 mm 2 mps 755 mmHg 75%
    02:00 +17°C° 0 mm 2 mps 754 mmHg 73%
    03:00 +17°C° 0 mm 2 mps 754 mmHg 71%
    04:00 +16°C° 0 mm 2 mps 754 mmHg 69%
    05:00 +16°C° 0 mm 2 mps 754 mmHg 67%
    06:00 +16°C° 0 mm 2 mps 754 mmHg 65%
    07:00 +18°C° 0 mm 2 mps 754 mmHg 55%
    08:00 +20°C° 0 mm 2 mps 754 mmHg 46%
    09:00 +23°C° 0 mm 2 mps 754 mmHg 36%
    10:00 +24°C° 0 mm 2 mps 754 mmHg 32%
    11:00 +26°C° 0 mm 2 mps 754 mmHg 28%
    12:00 +27°C° 0 mm 2 mps 753 mmHg 24%
    13:00 +27°C° 0 mm 2 mps 753 mmHg 27%
    14:00 +27°C° 0 mm 3 mps 753 mmHg 29%
    15:00 +27°C° 0 mm 3 mps 752 mmHg 31%
    16:00 +25°C° 0 mm 3 mps 752 mmHg 39%
    17:00 +24°C° 0 mm 3 mps 752 mmHg 47%
    18:00 +21°C° 0 mm 3 mps 753 mmHg 56%
    19:00 +21°C° 0 mm 3 mps 753 mmHg 56%
    20:00 +20°C° 0 mm 2 mps 753 mmHg 56%
    21:00 +20°C° 0 mm 2 mps 753 mmHg 57%
    22:00 +20°C° 0 mm 2 mps 753 mmHg 55%
    23:00 +20°C° 0 mm 2 mps 753 mmHg 53%

    25 October, Wednesday

    Time Temperature Precipitation Wind Pressure Humidity
    00:00 +20°C° 0 mm 2 mps 753 mmHg 51%
    01:00 +19°C° 0 mm 2 mps 752 mmHg 50%
    02:00 +19°C° 0 mm 2 mps 752 mmHg 49%
    03:00 +19°C° 0 mm 2 mps 752 mmHg 48%
    04:00 +19°C° 0 mm 2 mps 752 mmHg 47%
    05:00 +19°C° 0 mm 3 mps 752 mmHg 47%
    06:00 +18°C° 0 mm 3 mps 752 mmHg 47%
    07:00 +20°C° 0 mm 3 mps 753 mmHg 42%
    08:00 +22°C° 0 mm 3 mps 753 mmHg 36%
    09:00 +25°C° 0 mm 3 mps 753 mmHg 31%
    10:00 +26°C° 0 mm 3 mps 753 mmHg 29%
    11:00 +27°C° 0 mm 4 mps 753 mmHg 27%
    12:00 +29°C° 0 mm 4 mps 753 mmHg 25%
    13:00 +28°C° 0 mm 4 mps 753 mmHg 28%
    14:00 +28°C° 0 mm 5 mps 752 mmHg 31%
    15:00 +28°C° 0 mm 5 mps 752 mmHg 34%
    16:00 +26°C° 0 mm 5 mps 752 mmHg 43%
    17:00 +25°C° 0 mm 4 mps 752 mmHg 53%
    18:00 +22°C° 0 mm 4 mps 753 mmHg 62%
    19:00 +21°C° 0 mm 4 mps 753 mmHg 64%
    20:00 +21°C° 0 mm 4 mps 753 mmHg 66%
    21:00 +20°C° 0 mm 3 mps 753 mmHg 69%
    22:00 +20°C° 0 mm 3 mps 753 mmHg 67%
    23:00 +20°C° 0 mm 3 mps 753 mmHg 65%
    Show more